Location: Breux
(46.3269°N, 3.2993°E)
Time: 11:11:20
(UTC+00:00)

Cosmos 2228 - Pass Details

Date: 09 April 2020
Orbit: 588 x 619 km, 82.5° (Epoch: 03 June)

Event Time Altitude Azimuth Distance (km) Brightness Sun altitude
Rises 19:06:04 0° 181° (S) 2,834 6.3 -7.3°
Reaches altitude 10° 19:08:15 10° 179° (S) 1,941 5.4 -7.7°
Maximum altitude 19:12:31 70° 97° (E) 647 3.0 -8.4°
Drops below altitude 10° 19:16:53 10° 13° (NNE) 1,977 5.8 -9.1°
Sets 19:19:08 0° 12° (NNE) 2,891 6.6 -9.4°
